Regional Weather Roundup
Issued by NWS Jackson, KY

Home | Current Version | Previous Version | Text Only | Print | Product List | Glossary On
Versions: 1 2 3 4 5 6 7 8 9 10 11 12 13 14 15 16 17 18 19 20 21 22 23 24 25 26 27
000
ASUS43 KJKL 270010
RWRJKL

EAST KENTUCKY HOURLY WEATHER ROUNDUP
NATIONAL WEATHER SERVICE JACKSON KY
800 PM EDT MON SEP 26 2016

NOTE: "FAIR" INDICATES FEW OR NO CLOUDS BELOW 12,000 FEET WITH
NO SIGNIFICANT WEATHER AND/OR OBSTRUCTIONS TO VISIBILITY.

* THESE REPORTS ARE NOT UNDER NWS QUALITY CONTROL AND MAY NOT
  REPORT WEATHER SUCH AS PRECIPITATION AND FOG.

KYZ079-080-083-085-087-088-110-112-115-119-120-270100
...EASTERN KENTUCKY...

CITY           SKY/WX    TMP DP  RH WIND       PRES   REMARKS
JACKSON        CLOUDY    65  60  84 VRB5      30.06R
6HR MIN TEMP:  64; 6HR MAX TEMP:  77;

LONDON         CLOUDY    68  60  75 N6        30.06R
6HR MIN TEMP:  68; 6HR MAX TEMP:  78;

SOMERSET*      PTCLDY    63  59  88 NW5       30.08S
MONTICELLO*    CLOUDY    65  61  87 VRB7      30.09R
6HR MIN TEMP:  65; 6HR MAX TEMP:  72;

WILLIAMSBURG*  CLOUDY    68  64  88 NW5       30.06S
MIDDLESBORO*   CLOUDY    73  67  80 CALM      30.05R
6HR MIN TEMP:  73; 6HR MAX TEMP:  80; 6HR PCP:  0.03;

HARLAN APT*    CLOUDY    72  64  78 CALM      30.06R
PIKE CO APT*   CLOUDY    70  63  79 NW7       30.05R
BIG SANDY APT* CLOUDY    68  63  82 NW5       30.05R
6HR MIN TEMP:  68; 6HR MAX TEMP:  83;

MOREHEAD APT*  MOCLDY    61  55  82 CALM      30.08R
ASHLAND*       MOCLDY    64  57  77 CALM      30.02S
$$

KYZ035-036-041-042-044-050-067-078-099-270100
...CENTRAL KENTUCKY...

CITY           SKY/WX    TMP DP  RH WIND       PRES   REMARKS
MT STERLING*   MOCLDY    59  55  88 NW3       30.08S
FLEMING/MASON* CLOUDY    59  55  85 W3        30.07R
DANVILLE*      CLOUDY    59  54  82 CALM      30.09R
LEXINGTON      PTCLDY    61  53  75 NW3       30.07R
6HR MIN TEMP:  61; 6HR MAX TEMP:  67; 6HR PCP:  0.01;

FRANKFORT      CLOUDY    61  52  72 W3        30.06R
6HR MIN TEMP:  61; 6HR MAX TEMP:  68;

LOUISVILLE     PTCLDY    65  48  54 NW6       30.06R
6HR MIN TEMP:  64; 6HR MAX TEMP:  71;

LEBANON*         N/A     59  55  88 CALM      30.08S
GLASGOW*       CLOUDY    61  61 100 CALM      30.08S
BOWLING GREEN  CLEAR     65  54  67 CALM      30.08R
6HR MIN TEMP:  64; 6HR MAX TEMP:  69;

$$

KYZ091>093-OHZ055-061-077-WVZ005-015-034-035-042-270100
...SOUTHERN OHIO/WEST VIRGINIA...

CITY           SKY/WX    TMP DP  RH WIND       PRES   REMARKS
COVINGTON      CLOUDY    61  51  70 SW3       30.04R
COLUMBUS       MOCLDY    62  48  60 SW6       30.00R
DAYTON         PTCLDY    58  43  57 SW9       30.02R
WILMINGTON     PTCLDY    57  50  77 SW6       30.03R
HUNTINGTON     MOCLDY    66  58  75 CALM      30.04R
CHARLESTON     MOCLDY    70  59  68 W7        30.02R
PINEVILLE*     CLOUDY    68  65  89 MISG      30.09S FOG
BECKLEY        CLOUDY    67  64  90 S6        30.07R
BLUEFIELD      CLOUDY    67  62  84 CALM      30.10R
LOGAN CO APT*  CLOUDY    70  63  78 CALM      30.04R
$$

VAZ002-007-008-TNZ017-027-036-066-071-270100
...SOUTHWEST VIRGINIA/EAST TENNESSEE...

CITY           SKY/WX    TMP DP  RH WIND       PRES   REMARKS
WISE*          CLOUDY    68  64  88 CALM      30.11R
JONESVILLE*      N/A     73  66  78 CALM      30.06S
ABINGDON*      CLOUDY    68  66  94 W6        30.09R
BRISTOL        CLOUDY    68  66  93 CALM      30.06R
MORRISTOWN*    MOCLDY    70  68  94 CALM      30.04S
SEVIERVILLE*   CLEAR     72  64  78 CALM      30.03F
KNOXVILLE      MOCLDY    71  67  87 SW6       30.02F
OAK RIDGE      CLOUDY    74  68  81 S5        30.04R
CROSSVILLE     CLOUDY    71  63  75 NW6       30.08R
NASHVILLE      MOCLDY    66  59  78 N6        30.08R
$$

...KEY TO REMARKS...
VSB - VISIBILITY IN MILES
WCI - WIND CHILL INDEX
HX  - HEAT INDEX

$$




USA.gov is the U.S. government's official web portal to all federal, state and local government web resources and services.